| time (UTC) | temp F | wind direction | speed MPH | gust MPH | rain 1hr in | rain 24hr in | rain mn in | humidity % | barometer mb |
| 20260904223521 | 79 | 101 | 0.0 | 3.0 | 0.00 | 0.36 | 0.36 | 77 | 1012.3 |
| 20260904223041 | 80 | 17 | 0.0 | 2.0 | 0.00 | 0.36 | 0.36 | 76 | 1012.3 |
| 20260904222516 | 80 | 0 | 0.0 | 4.0 | 0.00 | 0.36 | 0.36 | 77 | 1012.3 |
| 20260904222019 | 80 | 55 | 1.0 | 4.0 | 0.00 | 0.36 | 0.36 | 76 | 1012.3 |
| 20260904221536 | 80 | 0 | 1.0 | 4.0 | 0.00 | 0.36 | 0.36 | 76 | 1012.4 |
| 20260904221019 | 81 | 74 | 1.0 | 6.0 | 0.00 | 0.36 | 0.36 | 75 | 1012.2 |
| 20260904220520 | 81 | 107 | 1.0 | 6.0 | 0.00 | 0.36 | 0.36 | 76 | 1012.2 |
| 20260904220040 | 80 | 0 | 1.0 | 3.0 | 0.00 | 0.36 | 0.36 | 77 | 1012.2 |
| 20260904215517 | 80 | 74 | 0.0 | 3.0 | 0.00 | 0.36 | 0.36 | 76 | 1012.3 |
| 20260904215019 | 80 | 85 | 1.0 | 3.0 | 0.00 | 0.36 | 0.36 | 76 | 1012.3 |
| 20260904214545 | 80 | 89 | 1.0 | 3.0 | 0.00 | 0.36 | 0.36 | 77 | 1012.3 |
| 20260904214019 | 81 | 0 | 0.0 | 3.0 | 0.00 | 0.36 | 0.36 | 75 | 1012.3 |
| 20260904213520 | 81 | 76 | 0.0 | 4.0 | 0.00 | 0.36 | 0.36 | 74 | 1012.3 |
| 20260904213041 | 82 | 44 | 1.0 | 4.0 | 0.00 | 0.36 | 0.36 | 72 | 1012.1 |
| 20260904212518 | 84 | 0 | 2.0 | 4.0 | 0.00 | 0.36 | 0.36 | 70 | 1012.0 |
| 20260904212025 | 85 | 110 | 1.0 | 4.0 | 0.00 | 0.36 | 0.36 | 69 | 1012.1 |
| 20260904211537 | 87 | 88 | 1.0 | 4.0 | 0.00 | 0.36 | 0.36 | 69 | 1012.2 |
| 20260904211021 | 86 | 245 | 0.0 | 2.0 | 0.00 | 0.36 | 0.36 | 72 | 1011.9 |
| 20260904210521 | 86 | 24 | 0.0 | 4.0 | 0.00 | 0.36 | 0.36 | 73 | 1011.9 |
| 20260904210042 | 86 | 0 | 1.0 | 8.0 | 0.00 | 0.36 | 0.36 | 71 | 1011.8 |
| 20260904205518 | 86 | 232 | 3.0 | 9.0 | 0.00 | 0.36 | 0.36 | 73 | 1011.7 |
| 20260904205020 | 86 | 107 | 2.0 | 9.0 | 0.00 | 0.36 | 0.36 | 72 | 1011.6 |
| 20260904204537 | 85 | 194 | 3.0 | 11.0 | 0.00 | 0.36 | 0.36 | 72 | 1011.5 |
| 20260904204017 | 85 | 317 | 4.0 | 16.0 | 0.00 | 0.36 | 0.36 | 74 | 1011.5 |
| 20260904203516 | 85 | 182 | 6.0 | 16.0 | 0.00 | 0.36 | 0.36 | 74 | 1011.4 |
| 20260904203035 | 84 | 307 | 3.0 | 14.0 | 0.00 | 0.36 | 0.36 | 76 | 1011.5 |
| 20260904202517 | 83 | 211 | 4.0 | 14.0 | 0.00 | 0.36 | 0.36 | 77 | 1011.4 |
| 20260904202019 | 83 | 160 | 6.0 | 14.0 | 0.00 | 0.36 | 0.36 | 75 | 1011.5 |
| 20260904201535 | 83 | 218 | 4.0 | 12.0 | 0.00 | 0.36 | 0.36 | 75 | 1011.4 |
| 20260904201017 | 83 | 140 | 3.0 | 14.0 | 0.00 | 0.36 | 0.36 | 76 | 1011.6 |
| 20260904200519 | 83 | 188 | 4.0 | 14.0 | 0.00 | 0.36 | 0.36 | 75 | 1011.6 |
| 20260904200045 | 83 | 212 | 4.0 | 13.0 | 0.00 | 0.36 | 0.36 | 75 | 1011.6 |
| 20260904195517 | 83 | 223 | 5.0 | 13.0 | 0.00 | 0.36 | 0.36 | 74 | 1011.6 |
| 20260904195018 | 83 | 234 | 4.0 | 15.0 | 0.00 | 0.36 | 0.36 | 75 | 1011.5 |
| 20260904194541 | 83 | 230 | 5.0 | 15.0 | 0.00 | 0.36 | 0.36 | 75 | 1011.7 |
| 20260904194019 | 83 | 223 | 4.0 | 15.0 | 0.00 | 0.36 | 0.36 | 76 | 1011.9 |
| 20260904193516 | 82 | 218 | 7.0 | 15.0 | 0.00 | 0.36 | 0.36 | 74 | 1012.1 |
| 20260904193046 | 82 | 248 | 5.0 | 15.0 | 0.00 | 0.36 | 0.36 | 76 | 1012.2 |
| 20260904192521 | 82 | 227 | 6.0 | 15.0 | 0.00 | 0.36 | 0.36 | 77 | 1012.2 |
| 20260904192020 | 82 | 238 | 6.0 | 15.0 | 0.00 | 0.36 | 0.36 | 77 | 1012.0 |
| 20260904191538 | 81 | 142 | 4.0 | 12.0 | 0.00 | 0.36 | 0.36 | 77 | 1012.1 |
| 20260904191017 | 81 | 246 | 5.0 | 12.0 | 0.00 | 0.36 | 0.36 | 78 | 1012.2 |
| 20260904190518 | 81 | 201 | 6.0 | 13.0 | 0.00 | 0.36 | 0.36 | 78 | 1012.3 |
| 20260904190038 | 81 | 149 | 6.0 | 13.0 | 0.00 | 0.36 | 0.36 | 77 | 1012.2 |
| 20260904185518 | 80 | 194 | 6.0 | 13.0 | 0.00 | 0.36 | 0.36 | 79 | 1012.3 |
| 20260904185020 | 79 | 190 | 4.0 | 12.0 | 0.00 | 0.36 | 0.36 | 80 | 1012.3 |
| 20260904184545 | 79 | 187 | 5.0 | 13.0 | 0.00 | 0.36 | 0.36 | 81 | 1012.3 |
| 20260904184018 | 79 | 182 | 6.0 | 13.0 | 0.00 | 0.36 | 0.36 | 82 | 1012.3 |
| 20260904183519 | 78 | 236 | 6.0 | 13.0 | 0.00 | 0.36 | 0.36 | 85 | 1012.3 |
| 20260904183036 | 77 | 203 | 5.0 | 12.0 | 0.00 | 0.36 | 0.36 | 87 | 1012.4 |
| 20260904182518 | 76 | 242 | 3.0 | 13.0 | 0.00 | 0.36 | 0.36 | 89 | 1012.8 |
| 20260904182026 | 75 | 239 | 4.0 | 13.0 | 0.00 | 0.36 | 0.36 | 89 | 1012.8 |
| 20260904181541 | 74 | 194 | 5.0 | 10.0 | 0.00 | 0.36 | 0.36 | 89 | 1012.7 |
| 20260904181024 | 74 | 274 | 3.0 | 13.0 | 0.00 | 0.36 | 0.36 | 90 | 1012.8 |
| 20260904180518 | 73 | 186 | 7.0 | 13.0 | 0.00 | 0.36 | 0.36 | 90 | 1012.8 |
| 20260904180046 | 73 | 205 | 5.0 | 17.0 | 0.00 | 0.36 | 0.36 | 91 | 1012.8 |
| 20260904175518 | 73 | 231 | 5.0 | 17.0 | 0.00 | 0.43 | 0.36 | 91 | 1012.4 |
| 20260904175017 | 73 | 259 | 6.0 | 24.0 | 0.00 | 0.43 | 0.36 | 91 | 1012.4 |
| 20260904174540 | 72 | 201 | 7.0 | 24.0 | 0.00 | 0.43 | 0.36 | 91 | 1012.4 |
| 20260904174020 | 72 | 159 | 8.0 | 20.0 | 0.00 | 0.43 | 0.36 | 92 | 1012.3 |
| 20260904173518 | 72 | 180 | 4.0 | 16.0 | 0.00 | 0.43 | 0.36 | 93 | 1012.4 |
| 20260904173047 | 71 | 57 | 6.0 | 16.0 | 0.00 | 0.43 | 0.36 | 93 | 1012.4 |
| 20260904172516 | 71 | 221 | 5.0 | 14.0 | 0.00 | 0.43 | 0.36 | 93 | 1012.4 |
| 20260904172017 | 71 | 165 | 6.0 | 18.0 | 0.00 | 0.43 | 0.36 | 93 | 1012.4 |
| 20260904171535 | 71 | 232 | 7.0 | 18.0 | 0.00 | 0.43 | 0.36 | 94 | 1012.7 |
| 20260904171016 | 70 | 223 | 9.0 | 18.0 | 0.00 | 0.43 | 0.36 | 94 | 1012.8 |
| 20260904170516 | 70 | 217 | 4.0 | 14.0 | 0.00 | 0.43 | 0.36 | 94 | 1012.6 |
| 20260904170035 | 70 | 177 | 5.0 | 11.0 | 0.01 | 0.43 | 0.36 | 94 | 1012.5 |
| 20260904165518 | 69 | 188 | 3.0 | 12.0 | 0.01 | 0.55 | 0.36 | 94 | 1012.6 |
| 20260904165022 | 69 | 179 | 5.0 | 13.0 | 0.01 | 0.55 | 0.36 | 94 | 1012.9 |
| 20260904164537 | 69 | 194 | 5.0 | 13.0 | 0.02 | 0.55 | 0.36 | 94 | 1013.0 |
| 20260904164018 | 69 | 205 | 4.0 | 14.0 | 0.03 | 0.55 | 0.36 | 94 | 1013.1 |
| 20260904163520 | 69 | 157 | 5.0 | 22.0 | 0.06 | 0.55 | 0.36 | 94 | 1013.2 |
| 20260904163040 | 68 | 274 | 5.0 | 22.0 | 0.11 | 0.55 | 0.36 | 94 | 1013.2 |
| 20260904162524 | 68 | 210 | 7.0 | 18.0 | 0.14 | 0.55 | 0.36 | 94 | 1013.4 |
| 20260904162016 | 68 | 146 | 6.0 | 14.0 | 0.14 | 0.55 | 0.36 | 94 | 1013.3 |
| 20260904161535 | 68 | 218 | 5.0 | 14.0 | 0.14 | 0.55 | 0.36 | 94 | 1013.2 |
| 20260904161018 | 68 | 142 | 4.0 | 12.0 | 0.14 | 0.55 | 0.36 | 94 | 1013.1 |
| 20260904160519 | 68 | 145 | 6.0 | 20.0 | 0.13 | 0.54 | 0.35 | 94 | 1013.5 |
| 20260904160041 | 68 | 175 | 5.0 | 20.0 | 0.13 | 0.54 | 0.35 | 94 | 1013.7 |
| 20260904155519 | 68 | 171 | 5.0 | 15.0 | 0.13 | 0.61 | 0.35 | 94 | 1014.3 |
| 20260904155020 | 68 | 128 | 5.0 | 16.0 | 0.13 | 0.61 | 0.35 | 94 | 1014.0 |
| 20260904154536 | 68 | 138 | 6.0 | 16.0 | 0.12 | 0.60 | 0.34 | 94 | 1013.9 |
| 20260904154018 | 68 | 207 | 4.0 | 16.0 | 0.11 | 0.58 | 0.33 | 94 | 1014.3 |
| 20260904153518 | 69 | 126 | 4.0 | 16.0 | 0.08 | 0.56 | 0.30 | 94 | 1014.5 |
| 20260904153046 | 69 | 182 | 6.0 | 14.0 | 0.02 | 0.50 | 0.24 | 94 | 1015.1 |
| 20260904152519 | 69 | 213 | 5.0 | 11.0 | 0.01 | 0.48 | 0.22 | 94 | 1015.5 |
| 20260904152017 | 69 | 198 | 4.0 | 9.0 | 0.04 | 0.48 | 0.22 | 94 | 1015.5 |
| 20260904151536 | 69 | 157 | 1.0 | 8.0 | 0.04 | 0.48 | 0.22 | 94 | 1015.4 |
| 20260904151022 | 69 | 206 | 3.0 | 5.0 | 0.04 | 0.48 | 0.22 | 94 | 1015.2 |
| 20260904150518 | 69 | 0 | 0.0 | 2.0 | 0.04 | 0.48 | 0.22 | 95 | 1015.0 |
| 20260904150041 | 68 | 0 | 0.0 | 6.0 | 0.06 | 0.48 | 0.22 | 95 | 1015.2 |
| 20260904145517 | 68 | 0 | 1.0 | 6.0 | 0.11 | 0.52 | 0.22 | 94 | 1015.2 |
| 20260904145018 | 68 | 128 | 3.0 | 8.0 | 0.12 | 0.52 | 0.22 | 94 | 1014.9 |
| 20260904144538 | 68 | 153 | 3.0 | 8.0 | 0.18 | 0.52 | 0.22 | 94 | 1015.0 |
| 20260904144019 | 68 | 113 | 3.0 | 8.0 | 0.20 | 0.52 | 0.22 | 94 | 1015.1 |
| 20260904143518 | 68 | 148 | 3.0 | 8.0 | 0.20 | 0.52 | 0.22 | 94 | 1015.4 |
| 20260904143039 | 68 | 52 | 1.0 | 5.0 | 0.20 | 0.52 | 0.22 | 93 | 1016.0 |
| 20260904142516 | 68 | 69 | 1.0 | 5.0 | 0.17 | 0.49 | 0.19 | 93 | 1016.0 |
| 20260904142019 | 68 | 153 | 0.0 | 6.0 | 0.16 | 0.48 | 0.18 | 93 | 1016.0 |
| 20260904141539 | 68 | 80 | 0.0 | 6.0 | 0.16 | 0.48 | 0.18 | 93 | 1016.1 |
| 20260904141015 | 68 | 128 | 2.0 | 9.0 | 0.16 | 0.48 | 0.18 | 93 | 1015.8 |
| 20260904140517 | 68 | 81 | 2.0 | 9.0 | 0.16 | 0.48 | 0.18 | 92 | 1015.7 |
| 20260904140038 | 69 | 75 | 1.0 | 8.0 | 0.13 | 0.45 | 0.15 | 91 | 1015.9 |
| 20260904135518 | 69 | 49 | 3.0 | 8.0 | 0.09 | 0.41 | 0.11 | 91 | 1016.3 |
| 20260904135019 | 69 | 100 | 2.0 | 13.0 | 0.07 | 0.39 | 0.09 | 90 | 1016.4 |
| 20260904134537 | 69 | 352 | 5.0 | 13.0 | 0.01 | 0.33 | 0.03 | 90 | 1017.4 |
| 20260904134018 | 69 | 319 | 3.0 | 11.0 | 0.00 | 0.32 | 0.02 | 90 | 1016.7 |
| 20260904133516 | 69 | 22 | 2.0 | 18.0 | 0.00 | 0.32 | 0.02 | 90 | 1016.1 |
| 20260904133035 | 69 | 5 | 4.0 | 29.0 | 0.00 | 0.32 | 0.02 | 90 | 1016.2 |
| 20260904132523 | 69 | 29 | 13.0 | 29.0 | 0.00 | 0.32 | 0.02 | 91 | 1017.0 |
| 20260904132019 | 69 | 342 | 3.0 | 9.0 | 0.00 | 0.32 | 0.02 | 91 | 1016.6 |
| 20260904131541 | 69 | 0 | 1.0 | 7.0 | 0.00 | 0.32 | 0.02 | 92 | 1015.6 |
| 20260904131018 | 69 | 298 | 2.0 | 7.0 | 0.00 | 0.32 | 0.02 | 92 | 1015.1 |
| 20260904130515 | 69 | 131 | 2.0 | 7.0 | 0.00 | 0.32 | 0.02 | 92 | 1014.2 |
| 20260904130034 | 69 | 106 | 2.0 | 7.0 | 0.00 | 0.32 | 0.02 | 92 | 1014.2 |
| 20260904125518 | 69 | 121 | 2.0 | 6.0 | 0.00 | 0.32 | 0.02 | 93 | 1014.5 |
| 20260904125043 | 69 | 90 | 1.0 | 6.0 | 0.00 | 0.32 | 0.02 | 93 | 1014.7 |
| 20260904124543 | 69 | 88 | 0.0 | 3.0 | 0.00 | 0.32 | 0.02 | 93 | 1014.9 |
| 20260904124018 | 68 | 107 | 1.0 | 3.0 | 0.00 | 0.32 | 0.02 | 93 | 1014.9 |
| 20260904123521 | 68 | 47 | 0.0 | 5.0 | 0.00 | 0.32 | 0.02 | 93 | 1015.0 |
| 20260904123034 | 68 | 48 | 1.0 | 5.0 | 0.00 | 0.32 | 0.02 | 93 | 1014.9 |
| 20260904122520 | 68 | 44 | 1.0 | 5.0 | 0.00 | 0.32 | 0.02 | 93 | 1014.7 |
| 20260904122018 | 68 | 71 | 1.0 | 5.0 | 0.00 | 0.32 | 0.02 | 93 | 1014.9 |
| 20260904121536 | 68 | 96 | 1.0 | 5.0 | 0.00 | 0.32 | 0.02 | 93 | 1014.8 |
| 20260904121021 | 68 | 78 | 2.0 | 12.0 | 0.00 | 0.32 | 0.02 | 93 | 1014.8 |
| 20260904120518 | 68 | 81 | 3.0 | 12.0 | 0.00 | 0.32 | 0.02 | 93 | 1014.8 |
| 20260904120040 | 68 | 22 | 3.0 | 10.0 | 0.00 | 0.32 | 0.02 | 94 | 1014.8 |
| 20260904115521 | 68 | 11 | 3.0 | 10.0 | 0.00 | 0.32 | 0.02 | 94 | 1014.7 |
| 20260904115016 | 68 | 352 | 3.0 | 10.0 | 0.00 | 0.32 | 0.02 | 94 | 1014.3 |
| 20260904114543 | 68 | 47 | 3.0 | 10.0 | 0.00 | 0.32 | 0.02 | 94 | 1014.1 |
| 20260904114018 | 68 | 360 | 3.0 | 8.0 | 0.00 | 0.32 | 0.02 | 94 | 1013.8 |
| 20260904113518 | 68 | 38 | 1.0 | 5.0 | 0.00 | 0.32 | 0.02 | 94 | 1013.7 |
| 20260904113037 | 68 | 49 | 1.0 | 4.0 | 0.00 | 0.32 | 0.02 | 94 | 1013.7 |
| 20260904112515 | 68 | 51 | 1.0 | 4.0 | 0.00 | 0.32 | 0.02 | 94 | 1013.6 |
| 20260904112021 | 68 | 50 | 0.0 | 2.0 | 0.00 | 0.32 | 0.02 | 94 | 1013.4 |
| 20260904111535 | 68 | 0 | 0.0 | 0.0 | 0.00 | 0.32 | 0.02 | 94 | 1013.2 |
| 20260904111018 | 68 | 0 | 0.0 | 0.0 | 0.00 | 0.32 | 0.02 | 94 | 1013.2 |
| 20260904110517 | 68 | 0 | 0.0 | 0.0 | 0.00 | 0.32 | 0.02 | 94 | 1013.2 |
| 20260904110039 | 68 | 0 | 0.0 | 0.0 | 0.00 | 0.32 | 0.02 | 94 | 1013.2 |
| 20260904105519 | 68 | 0 | 0.0 | 2.0 | 0.00 | 0.32 | 0.02 | 94 | 1013.2 |
| 20260904105020 | 68 | 0 | 1.0 | 3.0 | 0.00 | 0.32 | 0.02 | 94 | 1013.0 |
| 20260904104536 | 68 | 0 | 0.0 | 3.0 | 0.00 | 0.32 | 0.02 | 94 | 1013.0 |
| 20260904104015 | 68 | 5 | 1.0 | 3.0 | 0.00 | 0.32 | 0.02 | 93 | 1013.1 |
| 20260904103518 | 68 | 92 | 1.0 | 3.0 | 0.00 | 0.32 | 0.02 | 93 | 1012.8 |
| 20260904103038 | 68 | 0 | 0.0 | 0.0 | 0.00 | 0.32 | 0.02 | 93 | 1012.9 |
| 20260904102517 | 68 | 0 | 0.0 | 2.0 | 0.00 | 0.32 | 0.02 | 93 | 1012.9 |
| 20260904102015 | 69 | 0 | 0.0 | 3.0 | 0.00 | 0.32 | 0.02 | 93 | 1013.1 |
| 20260904101539 | 69 | 78 | 1.0 | 3.0 | 0.00 | 0.32 | 0.02 | 93 | 1013.3 |
| 20260904101017 | 69 | 0 | 1.0 | 4.0 | 0.00 | 0.32 | 0.02 | 92 | 1013.5 |
| 20260904100519 | 69 | 101 | 0.0 | 4.0 | 0.00 | 0.32 | 0.02 | 92 | 1013.5 |
| 20260904100038 | 69 | 0 | 1.0 | 10.0 | 0.00 | 0.32 | 0.02 | 92 | 1013.5 |
| 20260904095516 | 69 | 72 | 2.0 | 10.0 | 0.01 | 0.32 | 0.02 | 92 | 1013.4 |
| 20260904095020 | 69 | 43 | 3.0 | 8.0 | 0.01 | 0.32 | 0.02 | 92 | 1013.6 |
| 20260904094537 | 70 | 53 | 3.0 | 8.0 | 0.01 | 0.32 | 0.02 | 93 | 1013.5 |
| 20260904094017 | 70 | 341 | 1.0 | 4.0 | 0.01 | 0.32 | 0.02 | 93 | 1013.3 |
| 20260904093517 | 70 | 0 | 1.0 | 8.0 | 0.01 | 0.32 | 0.02 | 93 | 1013.5 |
| 20260904093034 | 70 | 51 | 2.0 | 8.0 | 0.01 | 0.32 | 0.02 | 94 | 1013.5 |
| 20260904092520 | 71 | 22 | 3.0 | 9.0 | 0.01 | 0.32 | 0.02 | 94 | 1013.6 |
| 20260904092018 | 71 | 66 | 4.0 | 12.0 | 0.01 | 0.32 | 0.02 | 94 | 1013.3 |
| 20260904091535 | 72 | 38 | 4.0 | 12.0 | 0.01 | 0.32 | 0.02 | 95 | 1013.4 |
| 20260904091015 | 72 | 5 | 1.0 | 5.0 | 0.02 | 0.32 | 0.02 | 95 | 1013.1 |
| 20260904090518 | 72 | 0 | 0.0 | 3.0 | 0.02 | 0.32 | 0.02 | 95 | 1012.6 |
| 20260904090034 | 72 | 0 | 0.0 | 0.0 | 0.02 | 0.32 | 0.02 | 95 | 1012.4 |
| 20260904085527 | 71 | 0 | 0.0 | 0.0 | 0.01 | 0.31 | 0.01 | 95 | 1012.3 |
| 20260904085018 | 71 | 0 | 0.0 | 0.0 | 0.01 | 0.31 | 0.01 | 95 | 1012.4 |
| 20260904084537 | 71 | 0 | 0.0 | 0.0 | 0.01 | 0.31 | 0.01 | 95 | 1012.6 |
| 20260904084018 | 71 | 0 | 0.0 | 0.0 | 0.01 | 0.31 | 0.01 | 95 | 1012.5 |
| 20260904083515 | 71 | 0 | 0.0 | 0.0 | 0.01 | 0.31 | 0.01 | 95 | 1012.3 |
| 20260904083051 | 72 | 0 | 0.0 | 0.0 | 0.01 | 0.31 | 0.01 | 94 | 1012.1 |
| 20260904082518 | 71 | 0 | 0.0 | 0.0 | 0.01 | 0.31 | 0.01 | 94 | 1012.0 |
| 20260904082018 | 71 | 0 | 0.0 | 0.0 | 0.01 | 0.31 | 0.01 | 94 | 1011.9 |
| 20260904081539 | 71 | 0 | 0.0 | 0.0 | 0.00 | 0.30 | 0.00 | 94 | 1011.9 |
| 20260904081017 | 71 | 0 | 0.0 | 0.0 | 0.00 | 0.30 | 0.00 | 94 | 1011.9 |
| 20260904080520 | 71 | 0 | 0.0 | 0.0 | 0.00 | 0.30 | 0.00 | 94 | 1012.2 |
| 20260904080036 | 71 | 0 | 0.0 | 0.0 | 0.00 | 0.30 | 0.00 | 94 | 1012.3 |
| 20260904075516 | 71 | 0 | 0.0 | 0.0 | 0.00 | 0.58 | 0.00 | 94 | 1012.3 |
| 20260904075015 | 71 | 0 | 0.0 | 0.0 | 0.00 | 0.58 | 0.00 | 94 | 1012.1 |
| 20260904074552 | 71 | 0 | 0.0 | 0.0 | 0.00 | 0.58 | 0.00 | 94 | 1012.4 |
| 20260904074018 | 71 | 0 | 0.0 | 0.0 | 0.00 | 0.58 | 0.00 | 94 | 1012.4 |
| 20260904073518 | 71 | 0 | 0.0 | 0.0 | 0.00 | 0.58 | 0.00 | 94 | 1012.5 |
| 20260904073034 | 71 | 0 | 0.0 | 0.0 | 0.00 | 0.58 | 0.00 | 94 | 1012.6 |
| 20260904072515 | 71 | 0 | 0.0 | 0.0 | 0.00 | 0.58 | 0.00 | 94 | 1012.8 |
| 20260904072017 | 71 | 0 | 0.0 | 2.0 | 0.00 | 0.58 | 0.00 | 94 | 1012.9 |
| 20260904071536 | 71 | 0 | 0.0 | 2.0 | 0.00 | 0.58 | 0.00 | 94 | 1012.8 |
| 20260904071020 | 71 | 115 | 0.0 | 2.0 | 0.00 | 0.58 | 0.00 | 94 | 1012.7 |
| 20260904070517 | 71 | 0 | 0.0 | 0.0 | 0.00 | 0.58 | 0.00 | 94 | 1013.1 |
| 20260904070038 | 71 | 0 | 0.0 | 2.0 | 0.00 | 0.58 | 0.00 | 94 | 1012.9 |
| 20260904065516 | 71 | 0 | 0.0 | 6.0 | 0.00 | 0.58 | 0.00 | 94 | 1012.8 |
| 20260904065018 | 71 | 130 | 0.0 | 9.0 | 0.00 | 0.58 | 0.00 | 94 | 1013.0 |
| 20260904064538 | 71 | 302 | 3.0 | 9.0 | 0.00 | 0.58 | 0.00 | 94 | 1013.4 |
| 20260904064016 | 71 | 350 | 5.0 | 9.0 | 0.00 | 0.58 | 0.00 | 94 | 1013.6 |
| 20260904063516 | 71 | 5 | 2.0 | 5.0 | 0.00 | 0.58 | 0.00 | 94 | 1013.2 |
| 20260904063046 | 71 | 279 | 1.0 | 4.0 | 0.00 | 0.58 | 0.00 | 94 | 1013.1 |
| 20260904062520 | 71 | 0 | 0.0 | 10.0 | 0.00 | 0.58 | 0.00 | 94 | 1013.1 |
| 20260904062015 | 71 | 9 | 3.0 | 10.0 | 0.00 | 0.58 | 0.00 | 94 | 1013.4 |
| 20260904061536 | 71 | 28 | 2.0 | 8.0 | 0.00 | 0.58 | 0.00 | 94 | 1013.4 |
| 20260904061017 | 71 | 329 | 0.0 | 11.0 | 0.00 | 0.58 | 0.00 | 94 | 1013.1 |
| 20260904060517 | 71 | 111 | 2.0 | 11.0 | 0.00 | 0.58 | 0.00 | 94 | 1012.9 |
| 20260904060059 | 71 | 342 | 2.0 | 7.0 | 0.00 | 0.58 | 0.00 | 95 | 1013.5 |
| 20260904055518 | 71 | 323 | 0.0 | 3.0 | 0.00 | 0.58 | 0.00 | 94 | 1013.4 |
| 20260904055016 | 71 | 0 | 0.0 | 0.0 | 0.00 | 0.58 | 0.00 | 94 | 1013.2 |
| 20260904054534 | 71 | 0 | 0.0 | 0.0 | 0.00 | 0.58 | 0.00 | 94 | 1013.1 |
| 20260904054016 | 71 | 0 | 0.0 | 0.0 | 0.00 | 0.58 | 0.00 | 94 | 1013.0 |
| 20260904053518 | 71 | 0 | 0.0 | 0.0 | 0.00 | 0.58 | 0.00 | 95 | 1013.6 |
| 20260904053037 | 71 | 0 | 0.0 | 0.0 | 0.00 | 0.58 | 0.00 | 94 | 1013.7 |
| 20260904052519 | 71 | 0 | 0.0 | 0.0 | 0.00 | 0.58 | 0.00 | 94 | 1013.4 |
| 20260904052023 | 71 | 0 | 0.0 | 0.0 | 0.00 | 0.58 | 0.00 | 94 | 1013.4 |
| 20260904051534 | 71 | 0 | 0.0 | 0.0 | 0.00 | 0.58 | 0.00 | 94 | 1013.5 |
| 20260904051017 | 71 | 0 | 0.0 | 0.0 | 0.00 | 0.58 | 0.00 | 94 | 1013.6 |
| 20260904050517 | 71 | 0 | 0.0 | 0.0 | 0.00 | 0.58 | 0.00 | 94 | 1013.5 |
| 20260904050040 | 71 | 0 | 0.0 | 0.0 | 0.00 | 0.58 | 0.00 | 94 | 1013.5 |
| 20260904045518 | 71 | 0 | 0.0 | 0.0 | 0.00 | 0.58 | 0.58 | 94 | 1013.6 |
| 20260904045017 | 71 | 0 | 0.0 | 0.0 | 0.00 | 0.58 | 0.58 | 94 | 1013.3 |
| 20260904044547 | 71 | 0 | 0.0 | 0.0 | 0.00 | 0.58 | 0.58 | 94 | 1013.4 |
| 20260904044019 | 71 | 0 | 0.0 | 0.0 | 0.00 | 0.58 | 0.58 | 94 | 1013.5 |
| 20260904043520 | 71 | 0 | 0.0 | 0.0 | 0.00 | 0.58 | 0.58 | 94 | 1013.8 |
| 20260904043039 | 71 | 0 | 0.0 | 0.0 | 0.00 | 0.58 | 0.58 | 94 | 1013.9 |
| 20260904042521 | 71 | 0 | 0.0 | 0.0 | 0.00 | 0.58 | 0.58 | 94 | 1013.7 |
| 20260904042021 | 71 | 0 | 0.0 | 0.0 | 0.00 | 0.58 | 0.58 | 94 | 1013.4 |
| 20260904041536 | 71 | 0 | 0.0 | 0.0 | 0.00 | 0.58 | 0.58 | 94 | 1013.6 |
| 20260904041023 | 70 | 0 | 0.0 | 0.0 | 0.00 | 0.58 | 0.58 | 94 | 1013.9 |
| 20260904040516 | 70 | 0 | 0.0 | 0.0 | 0.00 | 0.58 | 0.58 | 94 | 1014.0 |
| 20260904040040 | 70 | 0 | 0.0 | 0.0 | 0.00 | 0.58 | 0.58 | 93 | 1013.9 |
| 20260904035518 | 70 | 0 | 0.0 | 0.0 | 0.00 | 0.58 | 0.58 | 93 | 1013.9 |
| 20260904035015 | 70 | 0 | 0.0 | 0.0 | 0.00 | 0.58 | 0.58 | 93 | 1013.7 |
| 20260904034546 | 70 | 0 | 0.0 | 0.0 | 0.00 | 0.58 | 0.58 | 93 | 1013.7 |
| 20260904034021 | 70 | 0 | 0.0 | 0.0 | 0.00 | 0.58 | 0.58 | 93 | 1013.7 |
| 20260904033518 | 71 | 0 | 0.0 | 0.0 | 0.00 | 0.58 | 0.58 | 93 | 1013.8 |
| 20260904033039 | 71 | 0 | 0.0 | 0.0 | 0.00 | 0.58 | 0.58 | 93 | 1014.0 |
| 20260904032519 | 71 | 0 | 0.0 | 0.0 | 0.00 | 0.58 | 0.58 | 93 | 1013.9 |
| 20260904032016 | 71 | 0 | 0.0 | 0.0 | 0.00 | 0.58 | 0.58 | 92 | 1014.1 |
| 20260904031535 | 71 | 0 | 0.0 | 0.0 | 0.00 | 0.58 | 0.58 | 92 | 1014.1 |
| 20260904031016 | 71 | 0 | 0.0 | 0.0 | 0.00 | 0.58 | 0.58 | 92 | 1014.1 |
| 20260904030519 | 71 | 0 | 0.0 | 0.0 | 0.00 | 0.58 | 0.58 | 92 | 1013.9 |
| 20260904030040 | 71 | 0 | 0.0 | 0.0 | 0.00 | 0.58 | 0.58 | 92 | 1014.0 |
| 20260904025516 | 71 | 0 | 0.0 | 0.0 | 0.00 | 0.58 | 0.58 | 92 | 1014.0 |
| 20260904025019 | 71 | 0 | 0.0 | 0.0 | 0.00 | 0.58 | 0.58 | 92 | 1013.9 |
| 20260904024537 | 71 | 0 | 0.0 | 0.0 | 0.00 | 0.58 | 0.58 | 92 | 1013.9 |
| 20260904024018 | 71 | 0 | 0.0 | 0.0 | 0.00 | 0.58 | 0.58 | 91 | 1013.9 |
| 20260904023521 | 71 | 0 | 0.0 | 0.0 | 0.00 | 0.58 | 0.58 | 91 | 1014.0 |
| 20260904023038 | 71 | 0 | 0.0 | 0.0 | 0.00 | 0.58 | 0.58 | 91 | 1013.9 |
| 20260904022516 | 71 | 0 | 0.0 | 0.0 | 0.00 | 0.58 | 0.58 | 91 | 1013.9 |
| 20260904022020 | 71 | 0 | 0.0 | 0.0 | 0.00 | 0.58 | 0.58 | 91 | 1013.8 |
| 20260904021542 | 71 | 0 | 0.0 | 0.0 | 0.00 | 0.58 | 0.58 | 91 | 1013.9 |
| 20260904021016 | 71 | 0 | 0.0 | 0.0 | 0.00 | 0.58 | 0.58 | 91 | 1013.9 |
| 20260904020516 | 71 | 0 | 0.0 | 0.0 | 0.00 | 0.58 | 0.58 | 91 | 1013.8 |
| 20260904020041 | 71 | 0 | 0.0 | 0.0 | 0.00 | 0.58 | 0.58 | 91 | 1013.8 |
| 20260904015518 | 71 | 0 | 0.0 | 0.0 | 0.00 | 0.58 | 0.58 | 91 | 1013.8 |
| 20260904015019 | 71 | 0 | 0.0 | 0.0 | 0.00 | 0.58 | 0.58 | 91 | 1013.9 |
| 20260904014545 | 71 | 0 | 0.0 | 0.0 | 0.00 | 0.58 | 0.58 | 90 | 1013.8 |
| 20260904014020 | 71 | 0 | 0.0 | 0.0 | 0.00 | 0.58 | 0.58 | 90 | 1013.7 |
| 20260904013519 | 71 | 0 | 0.0 | 0.0 | 0.00 | 0.58 | 0.58 | 90 | 1013.8 |
| 20260904013038 | 71 | 0 | 0.0 | 0.0 | 0.00 | 0.58 | 0.58 | 90 | 1013.7 |
| 20260904012526 | 71 | 0 | 0.0 | 0.0 | 0.00 | 0.58 | 0.58 | 89 | 1013.7 |
| 20260904012023 | 71 | 0 | 0.0 | 0.0 | 0.00 | 0.58 | 0.58 | 89 | 1013.6 |
| 20260904011543 | 71 | 0 | 0.0 | 0.0 | 0.00 | 0.58 | 0.58 | 88 | 1013.5 |
| 20260904011017 | 72 | 0 | 0.0 | 0.0 | 0.00 | 0.58 | 0.58 | 88 | 1013.4 |
| 20260904010520 | 72 | 0 | 0.0 | 0.0 | 0.00 | 0.58 | 0.58 | 87 | 1013.4 |
| 20260904010050 | 72 | 0 | 0.0 | 0.0 | 0.00 | 0.58 | 0.58 | 87 | 1013.2 |
| 20260904005516 | 72 | 0 | 0.0 | 0.0 | 0.00 | 0.58 | 0.58 | 86 | 1013.0 |
| 20260904005018 | 73 | 0 | 0.0 | 0.0 | 0.00 | 0.58 | 0.58 | 86 | 1013.0 |
| 20260904004545 | 73 | 0 | 0.0 | 0.0 | 0.00 | 0.58 | 0.58 | 85 | 1013.0 |
| 20260904004018 | 73 | 0 | 0.0 | 0.0 | 0.00 | 0.58 | 0.58 | 85 | 1012.8 |
| 20260904003523 | 73 | 0 | 0.0 | 2.0 | 0.00 | 0.58 | 0.58 | 84 | 1012.7 |
| 20260904003039 | 74 | 0 | 0.0 | 2.0 | 0.00 | 0.58 | 0.58 | 84 | 1012.8 |
| 20260904002516 | 74 | 0 | 0.0 | 0.0 | 0.00 | 0.58 | 0.58 | 83 | 1012.9 |
| 20260904002019 | 74 | 0 | 0.0 | 1.0 | 0.00 | 0.58 | 0.58 | 83 | 1012.9 |
| 20260904001537 | 74 | 0 | 0.0 | 1.0 | 0.00 | 0.58 | 0.58 | 83 | 1012.9 |
| 20260904001022 | 74 | 0 | 0.0 | 2.0 | 0.00 | 0.58 | 0.58 | 82 | 1012.8 |
| 20260904000519 | 74 | 0 | 0.0 | 2.0 | 0.00 | 0.58 | 0.58 | 81 | 1013.0 |
| 20260904000048 | 75 | 0 | 0.0 | 2.0 | 0.00 | 0.58 | 0.58 | 82 | 1013.0 |
| 20260903235516 | 75 | 0 | 0.0 | 3.0 | 0.00 | 0.58 | 0.58 | 81 | 1012.9 |
| 20260903235017 | 75 | 0 | 0.0 | 3.0 | 0.00 | 0.58 | 0.58 | 81 | 1012.9 |
| 20260903234542 | 75 | 0 | 0.0 | 3.0 | 0.00 | 0.58 | 0.58 | 80 | 1012.9 |
| 20260903234018 | 75 | 0 | 1.0 | 3.0 | 0.00 | 0.58 | 0.58 | 80 | 1012.9 |
| 20260903233522 | 75 | 112 | 0.0 | 2.0 | 0.00 | 0.58 | 0.58 | 81 | 1013.0 |
| 20260903233040 | 75 | 0 | 0.0 | 2.0 | 0.00 | 0.58 | 0.58 | 80 | 1013.1 |
| 20260903232519 | 76 | 0 | 0.0 | 2.0 | 0.00 | 0.58 | 0.58 | 81 | 1012.9 |
| 20260903232017 | 76 | 0 | 0.0 | 7.0 | 0.00 | 0.58 | 0.58 | 80 | 1012.9 |
| 20260903231539 | 77 | 109 | 1.0 | 7.0 | 0.00 | 0.58 | 0.58 | 79 | 1012.8 |
| 20260903231019 | 77 | 111 | 2.0 | 4.0 | 0.00 | 0.58 | 0.58 | 79 | 1012.6 |
| 20260903230516 | 77 | 109 | 1.0 | 4.0 | 0.00 | 0.58 | 0.58 | 79 | 1012.8 |
| 20260903230035 | 77 | 105 | 1.0 | 6.0 | 0.00 | 0.58 | 0.58 | 79 | 1013.0 |
| 20260903225516 | 77 | 97 | 1.0 | 6.0 | 0.00 | 0.58 | 0.58 | 80 | 1012.9 |
| 20260903225018 | 77 | 105 | 1.0 | 4.0 | 0.00 | 0.58 | 0.58 | 80 | 1012.9 |
| 20260903224542 | 77 | 128 | 2.0 | 4.0 | 0.00 | 0.58 | 0.58 | 80 | 1012.9 |
| 20260903224024 | 77 | 113 | 1.0 | 4.0 | 0.00 | 0.58 | 0.58 | 80 | 1012.9 |